Hagerstown, MD

7:44 AM EST on December 11, 2019 (GMT -0500)
Hagerstown Regional-Henson

Weather History for KHGR - July, 2019

Change the Weather History Date:

Tuesday, July 30, 2019

  Actual Average Record
Temperature  
Mean Temperature 80 °F 75 °F  
Max Temperature 90 °F 85 °F 95 °F (1999)
Min Temperature 70 °F 65 °F 52 °F (2014)
Degree Days  
Heating Degree Days 0 0  
Month to date heating degree days 0 0  
Since 1 June heating degree days 5 18  
Since 1 July heating degree days 0 0  
Cooling Degree Days 15 10  
Month to date cooling degree days 422 312  
Year to date cooling degree days 859 597  
Since 1 June cooling degree days 677 521  
Growing Degree Days 30 (Base 50)    
Moisture  
Dew Point 65 °F    
Average Humidity 64    
Maximum Humidity 84    
Minimum Humidity 43    
Precipitation  
Precipitation 0.00 in 0.12 in 1.19 in (2016)
Month to date precipitation 4.36 3.29  
Year to date precipitation 25.96 23.37  
Sea Level Pressure  
Sea Level Pressure 30.02 in    
Wind  
Wind Speed 5 mph (SSW)    
Max Wind Speed 26 mph    
Max Gust Speed 33 mph    
Visibility 10 miles    
Events Thunderstorm    
T = Trace of Precipitation, MM = Missing Value Source: NWS Daily Summary

Daily Weather History Graph

Daily Weather History Graph

Search for Another Location

Airport or City:

Astronomy

Jul. 30, 2019 Rise Set
Actual Time 6:07 AM EDT 8:26 PM EDT
Civil Twilight 5:37 AM EDT 8:56 PM EDT
Nautical Twilight 5:00 AM EDT 9:33 PM EDT
Astronomical Twilight 4:18 AM EDT 10:14 PM EDT
Moon 4:14 AM EDT (7/30) 7:28 PM EDT (7/30)
Length of Visible Light 15h 18m
Length of Day
14h 18m
Waning Crescent, 3% of the Moon is Illuminated
Jul 30
Waning Crescent
Jul 31
New
Aug 7
First Quarter
Aug 15
Full
Aug 23
Last Quarter

Hourly Weather History & Observations

Time (EDT) Temp. Heat Index Dew Point Humidity Pressure Visibility Wind Dir Wind Speed Gust Speed Precip Events Conditions
12:53 AM 75.9 °F - 68.0 °F 76% 30.01 in 10.0 mi South 3.5 mph - N/A   Clear
1:53 AM 75.0 °F - 66.0 °F 73% 30.01 in 10.0 mi SSW 3.5 mph - N/A   Clear
2:19 AM 75.0 °F - 66.0 °F 73% 29.99 in 5.0 mi South 3.5 mph - N/A   Haze
2:53 AM 73.0 °F - 66.0 °F 79% 30.00 in 10.0 mi South 3.5 mph - N/A   Clear
3:53 AM 73.0 °F - 64.9 °F 76% 30.00 in 10.0 mi Calm Calm - N/A   Clear
4:53 AM 73.0 °F - 64.9 °F 76% 30.01 in 10.0 mi SE 5.8 mph - N/A   Clear
5:53 AM 71.1 °F - 64.9 °F 81% 30.02 in 10.0 mi SE 6.9 mph - N/A   Clear
6:53 AM 71.1 °F - 64.9 °F 81% 30.03 in 7.0 mi SSE 5.8 mph - N/A   Clear
7:53 AM 73.9 °F - 66.0 °F 76% 30.04 in 10.0 mi SSE 4.6 mph - N/A   Clear
8:53 AM 77.0 °F - 66.0 °F 69% 30.04 in 10.0 mi SSE 6.9 mph - N/A   Clear
9:53 AM 80.1 °F 82.1 °F 66.0 °F 62% 30.04 in 10.0 mi South 4.6 mph - N/A   Clear
10:53 AM 84.0 °F 86.5 °F 66.9 °F 56% 30.05 in 10.0 mi WSW 5.8 mph - N/A   Clear
11:53 AM 86.0 °F 87.6 °F 64.9 °F 49% 30.04 in 10.0 mi South 5.8 mph - N/A   Partly Cloudy
1:53 PM 88.0 °F 88.7 °F 63.0 °F 43% 30.01 in 10.0 mi SW 9.2 mph - N/A   Partly Cloudy
2:53 PM 87.1 °F 90.6 °F 68.0 °F 53% 30.00 in 10.0 mi West 8.1 mph - N/A   Scattered Clouds
3:41 PM 89.1 °F 91.0 °F 64.9 °F 45% 29.99 in 10.0 mi WSW 10.4 mph - N/A Thunderstorm Scattered Clouds
3:53 PM 80.6 °F 81.8 °F 62.6 °F 54% 30.02 in 10.0 mi WNW 23.0 mph 33.4 mph N/A Thunderstorm Mostly Cloudy
4:02 PM 77.0 °F - 61.0 °F 58% 30.01 in 10.0 mi NW 17.3 mph 26.5 mph N/A Thunderstorm Mostly Cloudy
4:22 PM 73.9 °F - 64.0 °F 71% 29.98 in 10.0 mi NW 10.4 mph - N/A   Scattered Clouds
4:53 PM 80.1 °F 81.5 °F 63.0 °F 56% 30.00 in 10.0 mi NW 5.8 mph - N/A   Partly Cloudy
5:53 PM 82.9 °F 84.0 °F 63.0 °F 51% 30.00 in 10.0 mi Calm Calm - N/A   Scattered Clouds
6:53 PM 80.1 °F 81.5 °F 63.0 °F 56% 30.00 in 10.0 mi NNW 5.8 mph - N/A   Scattered Clouds
7:53 PM 79.0 °F - 64.9 °F 62% 30.02 in 10.0 mi SSW 6.9 mph - N/A   Scattered Clouds
8:53 PM 78.1 °F - 64.9 °F 64% 30.03 in 10.0 mi South 3.5 mph - N/A   Clear
9:53 PM 78.1 °F - 64.9 °F 64% 30.04 in 10.0 mi SSW 4.6 mph - N/A   Clear
10:53 PM 73.9 °F - 66.9 °F 79% 30.04 in 10.0 mi SSW 4.6 mph - N/A   Partly Cloudy
11:53 PM 73.0 °F - 68.0 °F 84% 30.06 in 10.0 mi Calm Calm - N/A   Overcast